Simultaneous Nadir Overpasses (SNOs) Predictions

Prediction of SNOs between GOES-17 and AQUA Satellite Orbit:

Table of predicted SNOs for the next 14.0 days since TLE Epoch: 6/12/2020
Index Date Time (GOES-17) GOES-17 Lat,Lon AQUA Lat,Lon Distance(km) Time Diff (sec)
1 06/13/2020 10:42:59 0.01,-137.19 0.00,-137.15 3.92 80
2 06/15/2020 10:30:48 0.01,-137.19 -0.65,-134.20 339.94 80
3 06/15/2020 22:54:51 -0.01,-137.18 -0.46,-139.39 250.61 80
4 06/17/2020 22:42:39 0.00,-137.18 0.14,-136.43 84.58 80
5 06/19/2020 22:30:29 0.01,-137.16 0.80,-133.48 418.90 80
6 06/20/2020 10:51:43 -0.01,-137.16 0.33,-138.63 167.96 80
7 06/22/2020 10:36:52 -0.01,-137.13 -0.33,-135.68 165.44 80
8 06/22/2020 22:58:16 0.00,-137.12 -0.76,-140.87 425.87 80
9 06/24/2020 10:24:40 -0.00,-137.09 -0.94,-132.71 498.05 80
10 06/24/2020 22:46:04 0.00,-137.08 -0.15,-137.91 93.36 80




NCC Satellite Simultaneous Nadir Overpasses (SNOs) Prediction Service
